Time,TemperatureF,DewpointF,PressureIn,WindDirection,WindDirectionDegrees,WindSpeedMPH,WindSpeedGustMPH,Humidity,HourlyPrecipIn,Conditions,Clouds,dailyrainin,SoftwareType,DateUTC
2013-02-15 00:10:00,25.0,21.0,29.92,NW,321,7.0,-999.0,85,-99.99,,,0.00,weatherlink.com 1.10,2013-02-15 05:10:00,
2013-02-15 00:25:00,24.9,21.0,29.93,NW,304,8.0,-999.0,86,-99.99,,,0.00,weatherlink.com 1.10,2013-02-15 05:25:00,
2013-02-15 00:40:00,24.6,21.0,29.93,NW,311,8.0,-999.0,85,-99.99,,,0.00,weatherlink.com 1.10,2013-02-15 05:40:00,
2013-02-15 00:55:00,24.3,21.0,29.94,NW,311,8.0,-999.0,86,-99.99,,,0.00,weatherlink.com 1.10,2013-02-15 05:55:00,
2013-02-15 01:10:00,24.4,21.0,29.93,NNW,336,8.0,-999.0,86,-99.99,,,0.00,weatherlink.com 1.10,2013-02-15 06:10:00,
2013-02-15 01:40:00,24.2,21.0,29.94,NNW,328,5.0,-999.0,86,-99.99,,,0.00,weatherlink.com 1.10,2013-02-15 06:40:00,
2013-02-15 01:55:00,24.2,21.0,29.95,NNW,330,4.0,-999.0,87,-99.99,,,0.00,weatherlink.com 1.10,2013-02-15 06:55:00,
2013-02-15 02:10:00,24.3,21.0,29.95,NNW,327,9.0,-999.0,87,-99.99,,,0.00,weatherlink.com 1.10,2013-02-15 07:10:00,
2013-02-15 02:25:00,24.3,21.0,29.96,NW,326,4.0,-999.0,86,-99.99,,,0.00,weatherlink.com 1.10,2013-02-15 07:25:00,
2013-02-15 02:40:00,24.2,21.0,29.96,NW,325,4.0,-999.0,86,-99.99,,,0.00,weatherlink.com 1.10,2013-02-15 07:40:00,
2013-02-15 02:55:00,24.3,21.0,29.96,NW,324,6.0,-999.0,86,-99.99,,,0.00,weatherlink.com 1.10,2013-02-15 07:55:00,
2013-02-15 03:10:00,24.3,21.0,29.96,NW,317,5.0,-999.0,86,-99.99,,,0.00,weatherlink.com 1.10,2013-02-15 08:10:00,
2013-02-15 03:25:00,24.0,20.0,29.96,NW,317,5.0,-999.0,86,-99.99,,,0.00,weatherlink.com 1.10,2013-02-15 08:25:00,
2013-02-15 03:40:00,23.9,20.0,29.97,NW,309,7.0,-999.0,86,-99.99,,,0.00,weatherlink.com 1.10,2013-02-15 08:40:00,
2013-02-15 03:55:00,23.9,19.0,29.97,NW,319,11.0,-999.0,82,-99.99,,,0.00,weatherlink.com 1.10,2013-02-15 08:55:00,
2013-02-15 04:10:00,23.5,19.0,29.97,NNW,329,9.0,-999.0,83,-99.99,,,0.00,weatherlink.com 1.10,2013-02-15 09:10:00,
2013-02-15 04:25:00,23.2,19.0,29.98,NNW,330,9.0,-999.0,82,-99.99,,,0.00,weatherlink.com 1.10,2013-02-15 09:25:00,
2013-02-15 04:40:00,22.8,18.0,29.98,NW,322,8.0,-999.0,83,-99.99,,,0.00,weatherlink.com 1.10,2013-02-15 09:40:00,
2013-02-15 04:55:00,22.8,18.0,29.99,NW,321,10.0,-999.0,80,-99.99,,,0.00,weatherlink.com 1.10,2013-02-15 09:55:00,
2013-02-15 05:10:00,22.5,18.0,30.00,NW,315,8.0,-999.0,81,-99.99,,,0.00,weatherlink.com 1.10,2013-02-15 10:10:00,
2013-02-15 05:25:00,22.4,17.0,30.00,NW,314,9.0,-999.0,81,-99.99,,,0.00,weatherlink.com 1.10,2013-02-15 10:25:00,
2013-02-15 05:40:00,22.4,17.0,30.01,NNW,327,9.0,-999.0,80,-99.99,,,0.00,weatherlink.com 1.10,2013-02-15 10:40:00,
2013-02-15 05:55:00,22.3,17.0,30.01,NW,309,7.0,-999.0,80,-99.99,,,0.00,weatherlink.com 1.10,2013-02-15 10:55:00,
2013-02-15 06:10:00,22.0,17.0,30.02,NW,317,7.0,-999.0,80,-99.99,,,0.00,weatherlink.com 1.10,2013-02-15 11:10:00,
2013-02-15 06:25:00,21.9,17.0,30.03,NW,310,6.0,-999.0,80,-99.99,,,0.00,weatherlink.com 1.10,2013-02-15 11:25:00,
2013-02-15 06:40:00,21.8,17.0,30.03,NW,311,7.0,-999.0,80,-99.99,,,0.00,weatherlink.com 1.10,2013-02-15 11:40:00,
2013-02-15 06:55:00,22.0,17.0,30.04,NW,304,4.0,-999.0,80,-99.99,,,0.00,weatherlink.com 1.10,2013-02-15 11:55:00,
2013-02-15 07:10:00,21.8,17.0,30.04,WNW,295,4.0,-999.0,81,-99.99,,,0.00,weatherlink.com 1.10,2013-02-15 12:10:00,
2013-02-15 07:25:00,21.7,17.0,30.04,WNW,300,5.0,-999.0,81,-99.99,,,0.00,weatherlink.com 1.10,2013-02-15 12:25:00,
2013-02-15 07:40:00,21.5,16.0,30.05,NW,305,5.0,-999.0,80,-99.99,,,0.00,weatherlink.com 1.10,2013-02-15 12:40:00,
2013-02-15 07:55:00,20.8,16.0,30.05,NW,304,3.0,-999.0,81,-99.99,,,0.00,weatherlink.com 1.10,2013-02-15 12:55:00,
2013-02-15 08:10:00,20.3,15.0,30.06,NW,304,4.0,-999.0,81,-99.99,,,0.00,weatherlink.com 1.10,2013-02-15 13:10:00,
2013-02-15 08:25:00,20.6,15.0,30.07,WNW,302,5.0,-999.0,80,-99.99,,,0.00,weatherlink.com 1.10,2013-02-15 13:25:00,
2013-02-15 08:40:00,21.0,16.0,30.07,WNW,294,4.0,-999.0,80,-99.99,,,0.00,weatherlink.com 1.10,2013-02-15 13:40:00,
2013-02-15 08:55:00,21.3,16.0,30.08,WNW,301,7.0,-999.0,79,-99.99,,,0.00,weatherlink.com 1.10,2013-02-15 13:55:00,
2013-02-15 09:10:00,22.1,16.0,30.09,NW,306,6.0,-999.0,77,-99.99,,,0.00,weatherlink.com 1.10,2013-02-15 14:10:00,
2013-02-15 09:25:00,22.1,16.0,30.09,NW,310,11.0,-999.0,77,-99.99,,,0.00,weatherlink.com 1.10,2013-02-15 14:25:00,
2013-02-15 09:40:00,22.2,16.0,30.10,NW,315,10.0,-999.0,78,-99.99,,,0.00,weatherlink.com 1.10,2013-02-15 14:40:00,
2013-02-15 09:55:00,22.4,16.0,30.10,NW,323,6.0,-999.0,76,-99.99,,,0.00,weatherlink.com 1.10,2013-02-15 14:55:00,
2013-02-15 10:10:00,22.6,16.0,30.10,WNW,296,8.0,-999.0,75,-99.99,,,0.00,weatherlink.com 1.10,2013-02-15 15:10:00,
2013-02-15 10:25:00,22.7,16.0,30.11,NW,312,5.0,-999.0,76,-99.99,,,0.00,weatherlink.com 1.10,2013-02-15 15:25:00,
2013-02-15 10:40:00,23.7,17.0,30.11,WNW,292,8.0,-999.0,74,-99.99,,,0.00,weatherlink.com 1.10,2013-02-15 15:40:00,
2013-02-15 10:55:00,23.6,16.0,30.11,West,280,5.0,-999.0,74,-99.99,,,0.00,weatherlink.com 1.10,2013-02-15 15:55:00,
2013-02-15 11:10:00,24.0,17.0,30.11,WNW,296,5.0,-999.0,75,-99.99,,,0.00,weatherlink.com 1.10,2013-02-15 16:10:00,
2013-02-15 11:25:00,24.2,16.0,30.11,NW,309,7.0,-999.0,72,-99.99,,,0.00,weatherlink.com 1.10,2013-02-15 16:25:00,
2013-02-15 11:40:00,24.2,17.0,30.11,NW,306,6.0,-999.0,73,-99.99,,,0.00,weatherlink.com 1.10,2013-02-15 16:40:00,
2013-02-15 11:55:00,24.4,15.0,30.12,WNW,302,8.0,-999.0,68,-99.99,,,0.00,weatherlink.com 1.10,2013-02-15 16:55:00,
2013-02-15 12:10:00,24.5,17.0,30.12,West,281,6.0,-999.0,73,-99.99,,,0.00,weatherlink.com 1.10,2013-02-15 17:10:00,
2013-02-15 12:25:00,24.7,17.0,30.11,WNW,295,7.0,-999.0,73,-99.99,,,0.00,weatherlink.com 1.10,2013-02-15 17:25:00,
2013-02-15 12:40:00,24.9,16.0,30.11,WNW,300,11.0,-999.0,70,-99.99,,,0.00,weatherlink.com 1.10,2013-02-15 17:40:00,
2013-02-15 12:55:00,24.6,17.0,30.11,WNW,298,6.0,-999.0,72,-99.99,,,0.00,weatherlink.com 1.10,2013-02-15 17:55:00,
2013-02-15 13:11:00,25.3,16.0,30.10,WNW,300,7.0,-999.0,69,-99.99,,,0.00,weatherlink.com 1.10,2013-02-15 18:11:00,
2013-02-15 13:25:00,25.5,16.0,30.10,West,281,9.0,-999.0,68,-99.99,,,0.00,weatherlink.com 1.10,2013-02-15 18:25:00,
2013-02-15 13:40:00,25.2,16.0,30.10,West,281,10.0,-999.0,68,-99.99,,,0.00,weatherlink.com 1.10,2013-02-15 18:40:00,
2013-02-15 13:55:00,25.1,16.0,30.10,WNW,290,8.0,-999.0,68,-99.99,,,0.00,weatherlink.com 1.10,2013-02-15 18:55:00,
2013-02-15 14:10:00,25.3,16.0,30.10,West,280,8.0,-999.0,69,-99.99,,,0.00,weatherlink.com 1.10,2013-02-15 19:10:00,
2013-02-15 14:25:00,25.6,16.0,30.10,West,272,8.0,-999.0,66,-99.99,,,0.00,weatherlink.com 1.10,2013-02-15 19:25:00,
2013-02-15 14:41:00,25.7,16.0,30.10,West,269,11.0,-999.0,66,-99.99,,,0.00,weatherlink.com 1.10,2013-02-15 19:41:00,
2013-02-15 14:56:00,25.3,16.0,30.10,West,273,8.0,-999.0,68,-99.99,,,0.00,weatherlink.com 1.10,2013-02-15 19:56:00,
2013-02-15 15:10:00,25.2,16.0,30.10,WNW,286,11.0,-999.0,69,-99.99,,,0.00,weatherlink.com 1.10,2013-02-15 20:10:00,
2013-02-15 15:25:00,25.1,16.0,30.10,WNW,290,10.0,-999.0,67,-99.99,,,0.00,weatherlink.com 1.10,2013-02-15 20:25:00,
2013-02-15 15:40:00,25.0,16.0,30.11,WNW,282,12.0,-999.0,68,-99.99,,,0.00,weatherlink.com 1.10,2013-02-15 20:40:00,
2013-02-15 15:56:00,24.5,15.0,30.11,West,279,9.0,-999.0,67,-99.99,,,0.00,weatherlink.com 1.10,2013-02-15 20:56:00,
2013-02-15 16:11:00,24.6,15.0,30.11,WNW,292,14.0,-999.0,66,-99.99,,,0.00,weatherlink.com 1.10,2013-02-15 21:11:00,
2013-02-15 16:26:00,24.1,15.0,30.12,West,267,11.0,-999.0,69,-99.99,,,0.00,weatherlink.com 1.10,2013-02-15 21:26:00,
2013-02-15 16:40:00,23.9,16.0,30.12,WSW,258,8.0,-999.0,72,-99.99,,,0.00,weatherlink.com 1.10,2013-02-15 21:40:00,
2013-02-15 16:55:00,23.7,16.0,30.12,West,277,9.0,-999.0,71,-99.99,,,0.00,weatherlink.com 1.10,2013-02-15 21:55:00,
2013-02-15 17:10:00,23.6,15.0,30.13,West,267,10.0,-999.0,71,-99.99,,,0.00,weatherlink.com 1.10,2013-02-15 22:10:00,
2013-02-15 17:25:00,23.3,16.0,30.13,West,267,12.0,-999.0,72,-99.99,,,0.00,weatherlink.com 1.10,2013-02-15 22:25:00,
2013-02-15 17:40:00,22.6,15.0,30.14,WNW,293,10.0,-999.0,72,-99.99,,,0.00,weatherlink.com 1.10,2013-02-15 22:40:00,
2013-02-15 17:55:00,22.2,14.0,30.14,West,278,7.0,-999.0,72,-99.99,,,0.00,weatherlink.com 1.10,2013-02-15 22:55:00,
2013-02-15 18:10:00,21.8,14.0,30.14,WNW,282,7.0,-999.0,71,-99.99,,,0.00,weatherlink.com 1.10,2013-02-15 23:10:00,
2013-02-15 18:25:00,21.5,14.0,30.15,WNW,289,4.0,-999.0,74,-99.99,,,0.00,weatherlink.com 1.10,2013-02-15 23:25:00,
2013-02-15 18:40:00,21.2,15.0,30.15,WNW,294,3.0,-999.0,76,-99.99,,,0.00,weatherlink.com 1.10,2013-02-15 23:40:00,
2013-02-15 18:56:00,20.8,15.0,30.16,WNW,294,4.0,-999.0,77,-99.99,,,0.00,weatherlink.com 1.10,2013-02-15 23:56:00,
2013-02-15 19:10:00,20.8,15.0,30.16,WNW,287,4.0,-999.0,78,-99.99,,,0.00,weatherlink.com 1.10,2013-02-16 00:10:00,
2013-02-15 19:25:00,20.8,15.0,30.16,West,277,4.0,-999.0,79,-99.99,,,0.00,weatherlink.com 1.10,2013-02-16 00:25:00,
2013-02-15 19:41:00,20.8,16.0,30.16,West,277,2.0,-999.0,80,-99.99,,,0.00,weatherlink.com 1.10,2013-02-16 00:41:00,
2013-02-15 19:55:00,20.8,16.0,30.16,West,277,4.0,-999.0,81,-99.99,,,0.00,weatherlink.com 1.10,2013-02-16 00:55:00,
2013-02-15 20:11:00,20.6,17.0,30.16,West,277,3.0,-999.0,84,-99.99,,,0.00,weatherlink.com 1.10,2013-02-16 01:11:00,
2013-02-15 20:26:00,20.3,17.0,30.16,West,277,3.0,-999.0,86,-99.99,,,0.00,weatherlink.com 1.10,2013-02-16 01:26:00,
2013-02-15 20:40:00,20.2,17.0,30.16,West,277,2.0,-999.0,87,-99.99,,,0.00,weatherlink.com 1.10,2013-02-16 01:40:00,
2013-02-15 20:55:00,20.1,17.0,30.16,West,277,5.0,-999.0,88,-99.99,,,0.00,weatherlink.com 1.10,2013-02-16 01:55:00,
2013-02-15 21:10:00,19.9,17.0,30.16,West,277,2.0,-999.0,89,-99.99,,,0.00,weatherlink.com 1.10,2013-02-16 02:10:00,
2013-02-15 21:25:00,19.4,19.0,30.16,West,277,0.0,-999.0,98,-99.99,,,0.00,weatherlink.com 1.10,2013-02-16 02:25:00,
2013-02-15 21:40:00,18.6,16.0,30.16,West,277,0.0,-999.0,90,-99.99,,,0.00,weatherlink.com 1.10,2013-02-16 02:40:00,
2013-02-15 21:55:00,18.8,17.0,30.16,West,277,1.0,-999.0,91,-99.99,,,0.00,weatherlink.com 1.10,2013-02-16 02:55:00,
2013-02-15 22:11:00,18.6,16.0,30.15,West,277,1.0,-999.0,91,-99.99,,,0.00,weatherlink.com 1.10,2013-02-16 03:11:00,
2013-02-15 22:26:00,16.9,14.0,30.15,West,277,1.0,-999.0,88,-99.99,,,0.00,weatherlink.com 1.10,2013-02-16 03:26:00,
2013-02-15 22:41:00,16.2,14.0,30.14,West,277,2.0,-999.0,91,-99.99,,,0.00,weatherlink.com 1.10,2013-02-16 03:41:00,
2013-02-15 22:55:00,15.3,13.0,30.14,West,277,2.0,-999.0,90,-99.99,,,0.00,weatherlink.com 1.10,2013-02-16 03:55:00,
2013-02-15 23:10:00,17.6,16.0,30.14,West,277,2.0,-999.0,93,-99.99,,,0.00,weatherlink.com 1.10,2013-02-16 04:10:00,
2013-02-15 23:25:00,18.8,17.0,30.14,West,277,3.0,-999.0,93,-99.99,,,0.00,weatherlink.com 1.10,2013-02-16 04:25:00,
2013-02-15 23:40:00,19.2,17.0,30.14,West,277,5.0,-999.0,92,-99.99,,,0.00,weatherlink.com 1.10,2013-02-16 04:40:00,
2013-02-15 23:55:00,19.2,17.0,30.13,West,277,4.0,-999.0,91,-99.99,,,0.00,weatherlink.com 1.10,2013-02-16 04:55:00,